Probability
0 0 0 0 0 0 0 0 0 0 0 0 0 0 0 0 0 0 0 0 1 3 4 4 3 3 3 4 5 5 5 4 3 3 3 3 4 4 4 4 3 2 2 3
0 0 0 0 0 0 0 0 0 0 0 0 0 0 0 0 0 0 0 0 0 2 3 3 3 3 3 3 4 5 5 4 3 3 3 3 3 4 4 4 3 1 1 2
0 0 0 0 0 0 0 0 0 0 0 0 0 0 0 0 0 0 0 0 0 1 2 3 3 3 4 3 4 5 4 3 3 3 3 2 3 3 4 3 2 1 0 1
0 0 0 0 0 0 0 0 0 0 0 0 0 0 0 0 0 0 0 0 0 1 2 3 3 4 5 4 4 5 4 4 3 4 3 2 2 2 2 2 2 1 0 0
0 0 0 0 0 0 0 0 0 0 0 0 0 0 0 0 0 0 0 0 0 1 2 3 3 4 6 6 4 4 5 4 4 4 4 3 2 1 1 1 1 0 0 0
0 0 0 0 0 0 0 0 0 0 0 0 0 0 0 0 0 0 0 0 0 1 2 3 4 5 6 5 4 4 5 5 4 4 4 4 3 1 1 2 2 1 0 0
0 0 0 0 0 0 0 0 0 0 0 0 0 0 0 0 0 0 0 0 0 1 3 3 3 3 4 4 3 4 5 5 4 3 3 4 3 2 2 3 3 1 0 0
0 0 0 0 0 0 0 0 0 0 0 0 0 0 0 0 0 0 0 0 1 2 3 2 1 1 1 1 2 3 5 6 5 4 4 3 3 3 4 5 5 3 1 1
0 0 0 0 0 0 0 0 0 0 0 0 0 0 0 0 0 0 0 0 1 3 3 1 0 0 0 0 1 2 5 6 6 6 5 4 3 4 5 6 6 4 3 2
0 0 0 0 0 0 0 0 0 0 0 0 0 0 0 0 0 0 0 0 1 2 2 1 0 0 0 0 0 1 4 6 6 6 6 4 3 4 6 6 6 5 4 4
0 0 0 0 0 0 0 0 0 0 0 0 0 0 0 0 0 0 0 0 1 1 1 0 0 0 1 1 1 1 3 4 5 6 5 4 3 3 4 5 5 4 4 4
0 0 0 0 0 0 0 0 0 0 0 0 0 0 0 0 0 0 0 0 0 0 0 0 0 0 1 1 1 2 3 3 4 4 4 3 1 1 1 2 2 2 2 3
0 0 0 0 0 0 0 0 0 0 0 0 0 0 0 0 0 0 0 0 0 0 0 0 0 1 1 1 1 2 2 2 3 3 3 2 1 0 0 0 0 0 0 1
0 0 0 0 0 0 0 0 0 0 0 0 0 0 0 0 0 0 1 0 0 0 0 0 1 1 0 0 0 1 1 1 1 2 2 1 0 0 0 0 0 0 0 0
0 0 0 0 0 0 0 0 0 0 0 0 0 0 0 0 0 0 0 0 0 0 0 0 0 0 0 0 0 0 0 0 0 1 1 0 0 0 1 1 1 0 0 0
0 0 0 0 0 0 0 0 0 0 0 0 0 0 0 0 0 0 0 0 0 0 0 0 0 0 0 0 0 0 0 0 0 0 0 0 0 0 1 2 1 0 0 0
0 0 0 0 0 0 0 0 0 0 0 0 0 0 0 0 0 0 0 0 0 0 0 0 0 0 0 0 0 0 0 0 0 0 0 0 0 0 1 2 1 0 0 0
0 0 0 0 0 0 0 0 0 0 0 0 0 0 0 0 0 0 0 0 0 0 0 0 0 0 0 0 0 0 0 0 0 0 0 0 0 0 0 0 0 0 0 0
0 0 0 0 0 0 0 0 0 0 0 0 0 0 0 0 0 0 0 0 0 0 0 0 0 0 0 0 0 0 0 0 0 0 0 0 0 0 0 0 0 0 0 0
0 0 0 0 0 0 0 0 0 0 0 0 0 0 0 0 0 0 0 0 0 0 0 0 0 0 0 0 0 0 0 0 0 0 0 0 0 0 0 0 0 0 0 0
0 0 0 0 0 0 0 0 0 0 0 0 0 0 0 0 0 0 0 0 0 0 0 0 0 0 0 0 0 0 0 0 0 0 0 0 0 0 0 0 0 0 0 0
0 0 0 0 0 0 0 0 0 0 0 0 0 0 0 0 0 0 0 0 0 0 0 0 0 0 0 0 0 0 0 0 0 0 0 0 0 0 0 0 0 0 0 0
0 0 0 0 0 0 0 0 0 0 0 0 0 0 0 0 0 0 0 0 0 0 0 0 0 0 0 0 0 0 0 0 0 0 0 0 0 0 0 0 0 0 0 0
0 0 0 0 0 0 0 0 0 0 0 0 0 0 0 0 0 0 0 0 0 0 0 0 0 0 0 0 0 0 0 0 0 0 0 0 0 0 0 0 0 0 0 0
0 0 0 0 0 0 0 0 0 0 0 0 0 0 0 0 0 0 0 0 0 0 0 0 0 0 0 0 0 0 0 0 0 0 0 0 0 0 0 0 0 0 0 0
0 0 0 0 0 0 0 0 0 0 0 0 0 0 0 0 0 0 0 0 0 0 0 0 0 0 0 0 0 0 0 0 0 0 0 0 0 0 0 0 0 0 0 0
0 0 0 0 0 0 0 0 0 0 0 0 0 0 0 0 0 0 0 0 0 0 0 0 0 0 0 0 0 0 0 0 0 0 0 0 0 0 0 0 0 0 0 0
Wind_Speed
8 6 6 8 9 10 12 12 12 11 11 9 7 5 4 2 1 1 1 1 1 2 1 2 3 4 5 5 5 6 6 7 6 6 5 5 5 4 4 4 4 4 4 4
8 7 8 11 12 12 13 13 14 14 12 7 5 4 4 3 2 2 2 2 1 2 2 2 3 4 5 5 5 6 6 6 6 6 5 5 5 5 4 4 4 4 4 4
8 6 8 12 11 11 10 10 11 12 9 5 5 5 4 3 3 3 2 2 2 2 2 2 3 4 5 5 5 5 6 6 6 6 6 5 5 5 5 4 4 4 4 4
7 6 11 5 1 5 8 8 8 8 6 5 5 4 3 3 2 2 2 2 2 2 2 2 3 3 4 5 5 6 6 5 6 6 6 5 5 5 5 4 4 4 4 4
6 8 10 6 4 5 7 8 6 7 7 5 4 4 4 2 2 2 2 2 2 2 2 2 2 3 4 5 6 6 6 6 6 6 6 6 6 5 4 4 4 4 4 4
7 8 8 3 1 3 6 8 3 5 5 4 4 5 2 1 2 2 1 2 2 2 2 2 2 3 4 5 6 6 6 6 6 6 6 6 6 6 5 4 4 4 4 4
11 10 8 3 1 3 7 3 2 3 4 3 5 4 2 1 2 2 2 2 2 2 2 2 3 3 4 4 5 4 5 5 5 6 6 6 5 5 5 5 4 4 4 4
8 10 8 1 2 4 3 4 3 3 4 5 5 4 3 3 3 2 2 2 3 3 2 2 3 3 3 3 4 4 4 5 5 5 5 4 5 5 5 5 5 5 4 4
6 5 2 1 2 3 5 5 5 5 5 5 5 5 4 3 3 3 3 3 3 3 3 3 3 3 3 3 3 4 5 5 5 5 5 5 5 5 5 5 4 4 4 3
7 7 5 5 5 5 5 6 6 6 5 5 5 5 5 4 4 3 3 3 4 4 4 3 3 3 4 3 4 5 6 6 6 5 5 5 4 4 4 5 5 4 4 4
10 8 7 6 6 6 6 7 6 6 6 6 6 6 6 5 4 4 3 4 4 4 4 4 4 3 3 4 5 5 6 5 6 5 5 4 4 3 5 5 4 5 5 5
9 7 7 7 7 7 7 7 7 7 6 6 6 6 6 5 4 4 4 4 4 5 4 5 4 4 4 4 5 6 5 5 4 4 4 4 4 3 1 1 2 3 2 3
8 7 8 9 8 7 7 7 7 7 7 7 6 6 5 5 4 4 5 5 5 5 5 5 5 4 4 5 5 6 5 5 4 4 4 5 5 5 4 3 3 3 4 4
8 7 8 8 7 7 8 8 7 7 6 6 5 5 4 5 5 5 6 5 5 5 5 5 5 5 5 5 5 5 5 5 4 4 5 5 5 5 5 5 5 4 4 6
8 8 8 8 8 8 8 7 7 6 6 6 5 5 4 5 5 6 5 5 5 5 5 5 5 5 5 6 6 6 5 4 4 4 4 5 5 5 5 6 5 4 4 5
7 8 8 9 9 8 8 8 8 7 7 6 6 5 5 5 5 5 4 5 6 6 6 6 6 5 5 6 6 5 5 5 5 4 4 4 5 5 5 5 5 5 5 5
8 8 8 9 9 9 9 9 8 8 7 7 6 6 5 5 5 5 4 5 6 6 6 6 6 5 5 6 6 5 4 5 7 5 5 5 5 5 5 6 6 6 6 6
9 9 9 9 9 9 9 8 8 8 7 7 6 5 5 6 6 5 4 4 5 5 5 5 5 5 6 6 5 4 4 5 6 6 5 5 5 5 5 6 6 7 5 6
7 8 8 8 8 8 8 8 7 7 6 6 5 6 6 6 5 5 4 4 5 5 5 4 4 6 6 6 5 4 5 5 5 5 5 5 6 5 5 6 6 6 6 6
6 7 7 7 7 7 7 6 6 5 5 5 5 5 5 5 5 5 5 5 4 4 4 4 6 6 6 6 5 5 5 6 6 5 5 5 6 6 5 6 6 6 6 6
6 6 6 5 5 5 5 5 5 4 4 4 4 5 5 5 5 5 4 4 4 3 3 4 5 4 4 4 5 5 5 5 6 5 5 6 6 6 6 6 6 6 5 6
5 5 5 5 4 4 4 4 4 4 4 4 4 4 4 4 4 4 5 4 3 2 3 4 4 4 4 5 5 5 5 6 5 5 5 6 6 6 6 6 5 5 5 6
4 4 4 4 4 4 4 3 3 3 3 3 3 3 4 4 3 3 4 3 2 3 3 3 3 3 5 5 5 5 6 6 6 5 5 6 6 6 5 6 5 5 5 5
4 4 4 3 3 3 3 3 3 3 3 3 3 3 3 3 3 3 3 2 2 3 3 3 4 4 5 5 5 5 5 5 5 5 5 5 5 5 5 5 5 5 5 6
4 4 3 3 3 3 3 2 2 2 2 2 2 2 2 2 2 2 2 2 2 3 2 3 4 5 5 4 4 5 4 4 4 4 5 5 5 5 5 5 5 5 5 5
3 3 3 3 3 2 2 2 2 1 1 2 2 2 2 2 2 2 1 2 2 2 2 2 3 3 3 3 4 4 4 4 4 4 4 4 4 4 4 4 5 4 4 4
3 2 2 2 2 2 2 2 2 2 2 2 2 2 2 2 2 1 1 1 2 1 1 1 2 2 2 2 3 3 3 3 3 4 4 4 3 3 4 4 3 3 3 4
Wind_Direction
260 269 260 258 251 239 242 254 264 271 274 282 290 292 282 259 242 208 209 195 184 196 202 197 179 175 174 178 183 182 182 184 187 188 185 182 177 182 181 182 190 186 175 177
249 246 253 260 255 248 249 254 257 265 270 288 291 277 263 237 212 215 216 207 205 210 204 212 192 183 180 184 185 185 187 183 178 179 174 175 176 169 164 170 174 170 176 175
255 244 258 254 249 243 241 244 251 260 275 289 272 265 265 247 221 215 208 217 225 225 213 214 209 195 189 185 182 185 186 179 174 174 170 177 174 163 163 168 168 170 172 174
261 250 249 266 294 247 246 251 255 262 276 275 279 278 265 248 225 224 226 226 230 236 233 225 205 195 188 181 184 187 188 184 177 173 173 174 171 170 177 170 168 179 175 175
245 253 263 258 236 230 243 256 255 259 271 280 288 253 224 209 248 248 235 233 225 239 233 214 185 184 183 182 186 190 193 189 178 176 178 177 175 175 178 174 175 182 178 174
238 252 257 275 327 260 251 250 253 264 273 269 252 253 235 176 240 254 256 239 236 235 214 186 170 180 185 187 189 193 194 192 181 179 182 184 180 175 171 175 182 178 176 183
238 248 260 325 343 221 232 283 344 273 276 258 253 293 335 232 237 237 238 239 228 197 194 180 177 188 193 194 198 197 190 188 183 180 186 183 176 172 171 172 174 176 173 177
232 241 247 71 184 233 298 350 323 293 284 272 281 306 279 245 235 227 224 222 199 187 186 183 189 199 202 204 201 195 188 187 185 181 179 173 169 171 176 171 171 173 175 168
239 254 342 191 267 310 319 305 308 299 292 280 274 274 267 250 240 227 220 206 185 188 188 190 195 207 209 206 196 193 192 190 189 184 179 177 175 173 177 178 180 180 181 179
252 255 264 267 278 284 287 295 303 295 285 279 279 274 265 253 241 233 227 209 191 190 195 198 200 214 216 202 195 196 194 191 189 186 181 183 182 183 184 184 185 186 186 189
255 264 272 263 272 282 292 298 301 297 285 276 277 270 261 253 241 237 232 211 200 204 206 209 206 214 214 201 199 202 198 194 192 186 181 187 187 195 201 197 195 194 195 195
254 265 268 278 285 284 288 292 296 296 293 286 277 269 263 256 247 237 229 212 210 214 216 217 211 213 210 208 205 205 201 195 194 186 182 186 184 181 153 211 159 184 188 201
272 281 278 286 288 282 281 289 292 289 286 284 279 268 260 252 240 232 228 217 217 217 219 221 216 214 211 211 207 207 207 200 194 194 189 190 190 192 187 159 142 175 178 181
266 271 272 275 283 284 285 289 288 285 283 279 275 264 254 248 237 227 225 222 221 218 220 220 217 214 209 206 205 209 209 203 199 198 199 197 197 198 199 192 186 188 180 177
256 261 273 283 284 283 285 283 278 279 281 278 268 257 250 247 239 230 228 223 218 217 218 218 219 217 210 204 204 209 209 205 202 202 202 200 199 199 200 200 198 190 178 171
258 264 269 272 276 280 280 274 270 271 272 271 264 257 253 252 245 236 227 218 217 217 217 219 222 218 209 204 205 209 208 199 203 204 202 200 198 200 202 202 201 196 194 186
253 260 267 271 273 272 270 271 270 269 268 264 260 258 252 245 235 228 224 223 230 230 224 222 220 213 207 206 207 210 208 195 191 204 206 202 202 203 205 208 208 205 204 189
255 261 264 267 270 272 274 275 272 268 265 262 258 252 243 234 231 230 225 222 228 234 232 225 216 213 209 209 210 213 210 206 201 203 204 205 207 206 208 212 212 212 206 184
267 268 269 269 270 271 273 275 274 272 267 255 246 244 245 241 236 231 223 220 222 230 231 223 215 213 209 207 211 212 213 212 209 205 207 202 208 211 211 213 212 210 204 194
275 277 274 274 274 273 274 275 274 270 267 259 250 246 246 244 236 228 222 228 233 240 238 226 219 216 208 200 205 213 210 212 210 207 207 211 213 211 212 214 213 210 207 206
277 280 279 277 275 276 276 274 269 266 267 261 256 254 252 246 236 227 223 233 240 238 231 218 218 213 209 202 207 216 212 213 211 210 211 214 215 212 212 212 212 213 213 212
281 282 281 280 279 281 281 276 270 270 271 268 265 260 255 247 238 235 236 245 250 231 227 222 219 208 205 206 212 216 216 216 214 214 217 218 216 213 214 215 215 215 216 215
282 283 283 283 280 280 284 285 281 275 271 269 267 265 262 260 250 244 246 255 247 240 241 233 225 202 210 215 216 216 218 218 217 217 220 222 219 216 216 216 218 219 217 214
288 288 286 285 283 280 280 286 287 283 275 273 276 278 272 264 259 259 264 251 254 245 240 221 209 214 222 224 220 220 221 219 219 221 223 222 221 219 218 216 216 218 217 214
280 276 276 278 274 274 277 281 284 288 287 289 297 297 288 275 271 265 262 248 243 240 238 213 213 221 226 227 225 226 225 222 224 227 225 219 219 219 219 218 218 217 216 214
282 279 276 270 274 280 274 264 263 270 277 290 300 305 306 302 290 280 270 248 241 246 246 226 217 220 229 229 230 229 228 225 221 222 220 217 218 218 217 217 217 217 214 212
284 280 272 269 274 273 269 261 261 267 266 263 282 295 302 306 297 293 284 261 243 236 237 238 237 241 249 243 237 232 232 236 233 223 215 214 214 215 213 214 214 209 205 201